Regional Weather Roundup
Issued by NWS

Home | Current Version | Previous Version | Text Only | Print | Product List | Glossary On
Versions: 1 2 3 4 5 6 7 8 9 10 11 12 13 14 15 16 17 18 19 20 21 22 23 24 25 26 27 28 29 30 31 32 33 34 35 36 37 38 39 40 41 42 43 44 45 46 47 48 49 50
000
ASUS44 KOUN 041100
RWROK

WEATHER ROUNDUP FOR OKLAHOMA
NATIONAL WEATHER SERVICE NORMAN OK
600 AM CDT FRI SEP 04 2015

NOTE: "FAIR" INDICATES FEW OR NO CLOUDS BELOW 12,000 FEET WITH NO
      SIGNIFICANT WEATHER AND/OR OBSTRUCTIONS TO VISIBILITY.

OKZ001>007-009>012-014-015-017-041200-
NORTHWEST OKLAHOMA AND THE PANHANDLE

CITY           SKY/WX    TMP DP  RH WIND       PRES   REMARKS
GAGE           FAIR      72  62  71 S17       29.90S
GUYMON         PTCLDY    73  55  53 SW10      29.90R
$$

OKZ016-021>023-033>039-044-045-041200-
SOUTHWEST OKLAHOMA

CITY           SKY/WX    TMP DP  RH WIND       PRES   REMARKS
LAWTON/REGL    CLEAR     71  64  78 E3        29.92R
LAWTON/FT SILL CLEAR     71  66  83 SE5       29.91R
FREDERICK      CLEAR     70  65  84 SE8       29.88S
CLINTON        CLEAR     73  63  70 S13       29.94S
HOBART         CLEAR     74  64  71 S10       29.92S
ALTUS AFB      CLEAR     69  63  79 SE7       29.91R
$$

OKZ018>020-024>031-041200-
CENTRAL OKLAHOMA

CITY           SKY/WX    TMP DP  RH WIND       PRES   REMARKS
OKLAHOMA CITY  MOCLDY    68  65  90 S5        29.93R
OKC/WILEY POST CLEAR     73  65  75 S12       29.92S
OKC/TINKER AFB CLEAR     72  66  81 SE8       29.93R
STILLWATER     CLEAR     70  64  81 SE5       29.92R
GUTHRIE        CLEAR     72  64  76 SE6       29.92R
$$

OKZ008-013-054>072-041200-
NORTHEAST OKLAHOMA

CITY           SKY/WX    TMP DP  RH WIND       PRES   REMARKS
TULSA          CLOUDY    74  69  85 SE6       29.93R
TULSA/JONES    PTCLDY    72  68  87 CALM      29.94R
PONCA CITY     CLEAR     76  65  68 S6        29.92R
BARTLESVILLE   PTCLDY    67  67 100 CALM      29.94S
MUSKOGEE       PTCLDY    70  68  93 S5        29.96R
$$

OKZ032-040>043-046>053-073>077-041200-
SOUTH CENTRAL/SOUTHEAST OKLAHOMA

CITY           SKY/WX    TMP DP  RH WIND       PRES   REMARKS
MCALESTER      PTCLDY    73  66  78 E5        29.95S
$$




USA.gov is the U.S. government's official web portal to all federal, state and local government web resources and services.